Content
SEND FEEDBACK

Daily
Averages
Monthly
Summary
Syria

AL LATHQIYAH, SYRIA


Home > Middle East > Syria
Elevation: 23 feet     Latitude: 35 31N     Longitude: 035 46E

WEATHER
 
SELECT A DAY
Number of Records: 136,131;   Date Range: 10/26/97 - 7/26/14
 
SHARE

PRINT THIS DATA

[ ← Previous Day ]
WEATHER ALMANAC - AUGUST 14, 2013
[ Next Day → ]
[ °C ]   °F
Weather ElementAverageHighLow
Temperature81 °F89 °F (3:00 pm)68 °F (6:00 am)
Dewpoint68.9 °F74 °F (3:00 pm)40 °F (9:00 pm)
Humidity67.5 %88 % (1:00 am)13 % (9:00 pm)
Barometer29.71 in29.74 in (1:00 am)29.68 in (3:00 pm)
Wind Speed5.2 mph11.5 mph (12:00 pm)
Weather ElementAverage
Visibility7.6 mi
Wind DirectionSSW (194.4 °)

Weather ElementTotal
Precipitation---
Cooling Degree Days13.5 (Base 65)
Growing Degree Days28.5 (Base 50)
Averaged from 26 records on August 14, 2013
WEATHER CONDITIONS BREAKOUT
WIND DIRECTION BREAKOUT
WEATHER BY HOUR - AUGUST 14, 2013
[ °C ]   °F
Local TimeTemperatureDewpointHumidityBarometerVisibilityWind DirectionWind SpeedGust SpeedPrecipitationEventsConditions
1:00 AM73.4 °F69.8 °F88 %29.74 inESE (110°)4.6 mphClear
2:00 AM73.4 °F69.8 °F88 %29.71 inEast (90°)4.6 mphClear
3:00 AM77.0 °F72.0 °F79 %29.70 in9.0 miSSE (150°)2.2 mph
3:00 AM71.6 °F68.0 °F88 %29.71 inEast (90°)4.6 mphClear
5:00 AM71.6 °F62.6 °F73 %29.71 inEast (90°)4.6 mphClear
6:00 AM68.0 °F64.4 °F88 %29.71 inENE (70°)4.6 mphClear
7:00 AM71.6 °F66.2 °F83 %29.71 inENE (70°)4.6 mphClear
8:00 AM78.8 °F68.0 °F69 %29.74 inENE (70°)4.6 mphClear
9:00 AM12.0 miCalm
9:00 AM80.6 °F69.8 °F70 %29.74 inENE (70°)4.6 mphClear
10:00 AM86.0 °F69.8 °F58 %29.74 in6.2 miSW (230°)6.9 mphPartly Cloudy
11:00 AM87.8 °F69.8 °F55 %29.74 in6.2 miWSW (250°)4.6 mphScattered Clouds
12:00 PM86.0 °F69.8 °F58 %29.71 in6.2 miWest (270°)11.5 mphPartly Cloudy
1:00 PM86.0 °F71.6 °F62 %29.71 in6.2 miWest (270°)6.9 mphPartly Cloudy
2:00 PM87.8 °F71.6 °F58 %29.71 in6.2 miWNW (290°)11.5 mphPartly Cloudy
3:00 PM89.0 °F74.0 °F54 %29.68 in9.0 miSSW (210°)4.5 mph
3:00 PM87.8 °F71.6 °F58 %29.68 in6.2 miWNW (290°)6.9 mphPartly Cloudy
4:00 PM87.8 °F71.6 °F58 %29.68 inWSW (240°)6.9 mphClear
5:00 PM87.8 °F71.6 °F58 %29.68 inWSW (240°)4.6 mphClear
6:00 PM86.0 °F71.6 °F62 %29.68 inSW (230°)6.9 mphClear
7:00 PM84.2 °F71.6 °F66 %29.68 inSW (220°)4.6 mphClear
8:00 PM82.4 °F71.6 °F70 %29.68 inWSW (250°)4.6 mphClear
9:00 PM82.0 °F40.0 °F13 %9.0 miSE (130°)2.2 mph
9:00 PM82.4 °F71.6 °F70 %29.71 inWSW (250°)4.6 mphClear
10:00 PM78.8 °F71.6 °F78 %29.71 inNNW (340°)4.6 mphClear
11:00 PM77.0 °F71.6 °F83 %29.71 inNNW (340°)4.6 mphClear
Hourly data recorded from OSLK, located miles away from Al Lathqiyah, Syria







STORIES FROM OUR PARTNERS